Time,TemperatureF,DewpointF,PressureIn,WindDirection,WindDirectionDegrees,WindSpeedMPH,WindSpeedGustMPH,Humidity,HourlyPrecipIn,Conditions,Clouds,dailyrainin,SoftwareType,DateUTC
2013-01-31 00:02:00,36.3,19.9,30.12,SE,134,0.0,0.0,51,0.00,,---,0.00,VWS V14.01,2013-01-31 07:02:00,
2013-01-31 00:07:00,36.0,19.1,30.12,ESE,105,4.0,4.0,50,0.00,,---,0.00,VWS V14.01,2013-01-31 07:07:00,
2013-01-31 00:12:00,36.1,19.8,30.12,NNE,24,0.0,4.9,51,0.00,,---,0.00,VWS V14.01,2013-01-31 07:12:00,
2013-01-31 00:17:00,36.3,19.9,30.12,SSW,199,3.6,5.4,51,0.00,,---,0.00,VWS V14.01,2013-01-31 07:17:00,
2013-01-31 00:22:00,36.7,19.8,30.12,SSW,199,0.0,5.4,50,0.00,,---,0.00,VWS V14.01,2013-01-31 07:22:00,
2013-01-31 00:27:00,36.9,20.0,30.12,SE,136,4.0,5.4,50,0.00,,---,0.00,VWS V14.01,2013-01-31 07:27:00,
2013-01-31 00:32:00,36.7,19.8,30.12,South,176,3.1,3.1,50,0.00,,---,0.00,VWS V14.01,2013-01-31 07:32:00,
2013-01-31 00:37:00,36.5,19.6,30.12,WNW,285,3.1,4.9,50,0.00,,---,0.00,VWS V14.01,2013-01-31 07:37:00,
2013-01-31 00:42:00,36.3,19.5,30.12,West,278,0.0,4.9,50,0.00,,---,0.00,VWS V14.01,2013-01-31 07:42:00,
2013-01-31 00:47:00,36.1,19.3,30.12,West,278,0.0,0.0,50,0.00,,---,0.00,VWS V14.01,2013-01-31 07:47:00,
2013-01-31 00:52:00,36.3,19.5,30.12,North,357,0.0,0.0,50,0.00,,---,0.00,VWS V14.01,2013-01-31 07:52:00,
2013-01-31 00:57:00,36.5,19.6,30.12,ENE,76,5.8,5.8,50,0.00,,---,0.00,VWS V14.01,2013-01-31 07:57:00,
2013-01-31 01:02:00,37.2,20.3,30.12,SE,145,5.4,6.7,50,0.00,,---,0.00,VWS V14.01,2013-01-31 08:02:00,
2013-01-31 01:07:00,37.9,20.0,30.12,South,189,0.0,6.7,48,0.00,,---,0.00,VWS V14.01,2013-01-31 08:07:00,
2013-01-31 01:12:00,37.8,18.3,30.12,NNE,15,4.0,6.7,45,0.00,,---,0.00,VWS V14.01,2013-01-31 08:12:00,
2013-01-31 01:17:00,38.3,18.3,30.12,ENE,67,5.8,5.8,44,0.00,,---,0.00,VWS V14.01,2013-01-31 08:17:00,
2013-01-31 01:22:00,38.7,18.6,30.12,ESE,107,5.4,6.3,44,0.00,,---,0.00,VWS V14.01,2013-01-31 08:22:00,
2013-01-31 01:27:00,38.8,18.8,30.12,SSW,213,4.9,6.7,44,0.00,,---,0.00,VWS V14.01,2013-01-31 08:27:00,
2013-01-31 01:32:00,38.7,18.6,30.12,ENE,72,0.0,3.1,44,0.00,,---,0.00,VWS V14.01,2013-01-31 08:32:00,
2013-01-31 01:37:00,38.5,18.5,30.12,SW,232,4.0,5.4,44,0.00,,---,0.00,VWS V14.01,2013-01-31 08:37:00,
2013-01-31 01:42:00,38.3,17.8,30.12,NNE,12,3.1,5.4,43,0.00,,---,0.00,VWS V14.01,2013-01-31 08:42:00,
2013-01-31 01:47:00,38.3,18.3,30.12,ESE,104,2.2,2.2,44,0.00,,---,0.00,VWS V14.01,2013-01-31 08:47:00,
2013-01-31 01:52:00,38.1,18.1,30.12,ESE,106,4.0,4.9,44,0.00,,---,0.00,VWS V14.01,2013-01-31 08:52:00,
2013-01-31 01:57:00,37.8,17.8,30.12,South,170,3.6,4.9,44,0.00,,---,0.00,VWS V14.01,2013-01-31 08:57:00,
2013-01-31 02:02:00,37.6,17.7,30.12,SE,136,0.0,2.7,44,0.00,,---,0.00,VWS V14.01,2013-01-31 09:02:00,
2013-01-31 02:07:00,37.4,17.5,30.12,SE,136,0.0,2.7,44,0.00,,---,0.00,VWS V14.01,2013-01-31 09:07:00,
2013-01-31 02:12:00,36.9,17.5,30.15,SE,136,0.0,2.7,45,0.00,,---,0.00,VWS V14.01,2013-01-31 09:12:00,
2013-01-31 02:17:00,36.5,17.2,30.15,South,169,0.0,0.0,45,0.00,,---,0.00,VWS V14.01,2013-01-31 09:17:00,
2013-01-31 02:22:00,36.3,17.5,30.15,South,186,3.1,3.1,46,0.00,,---,0.00,VWS V14.01,2013-01-31 09:22:00,
2013-01-31 02:27:00,36.3,18.0,30.15,West,263,0.0,4.0,47,0.00,,---,0.00,VWS V14.01,2013-01-31 09:27:00,
2013-01-31 02:32:00,36.5,18.7,30.15,West,263,0.0,0.0,48,0.00,,---,0.00,VWS V14.01,2013-01-31 09:32:00,
2013-01-31 02:37:00,36.3,18.5,30.15,West,263,0.0,0.0,48,0.00,,---,0.00,VWS V14.01,2013-01-31 09:37:00,
2013-01-31 02:42:00,36.1,18.8,30.15,West,260,0.0,0.0,49,0.00,,---,0.00,VWS V14.01,2013-01-31 09:42:00,
2013-01-31 02:47:00,35.8,18.5,30.15,SE,143,0.0,0.0,49,0.00,,---,0.00,VWS V14.01,2013-01-31 09:47:00,
2013-01-31 02:52:00,36.1,18.8,30.15,SE,143,0.0,0.0,49,0.00,,---,0.00,VWS V14.01,2013-01-31 09:52:00,
2013-01-31 02:57:00,36.1,18.8,30.15,South,190,0.0,4.0,49,0.00,,---,0.00,VWS V14.01,2013-01-31 09:57:00,
2013-01-31 03:02:00,36.3,19.5,30.15,SSW,197,0.0,0.0,50,0.00,,---,0.00,VWS V14.01,2013-01-31 10:02:00,
2013-01-31 03:07:00,36.3,19.5,30.15,South,169,4.0,4.0,50,0.00,,---,0.00,VWS V14.01,2013-01-31 10:07:00,
2013-01-31 03:12:00,36.3,19.5,30.15,East,101,2.2,5.4,50,0.00,,---,0.00,VWS V14.01,2013-01-31 10:12:00,
2013-01-31 03:17:00,36.3,19.5,30.15,WSW,244,2.7,2.7,50,0.00,,---,0.00,VWS V14.01,2013-01-31 10:17:00,
2013-01-31 03:22:00,36.5,19.6,30.15,SE,131,7.6,7.6,50,0.00,,---,0.00,VWS V14.01,2013-01-31 10:22:00,
2013-01-31 03:27:00,36.7,19.8,30.15,SE,128,2.7,7.6,50,0.00,,---,0.00,VWS V14.01,2013-01-31 10:27:00,
2013-01-31 03:32:00,36.9,20.0,30.15,SSE,150,4.0,4.0,50,0.00,,---,0.00,VWS V14.01,2013-01-31 10:32:00,
2013-01-31 03:37:00,36.9,20.0,30.15,East,93,0.0,5.4,50,0.00,,---,0.00,VWS V14.01,2013-01-31 10:37:00,
2013-01-31 03:42:00,36.3,19.5,30.15,East,94,0.0,5.4,50,0.00,,---,0.00,VWS V14.01,2013-01-31 10:42:00,
2013-01-31 03:47:00,36.9,20.0,30.15,South,186,3.6,5.8,50,0.00,,---,0.00,VWS V14.01,2013-01-31 10:47:00,
2013-01-31 03:52:00,37.0,20.1,30.15,SE,143,2.2,5.8,50,0.00,,---,0.00,VWS V14.01,2013-01-31 10:52:00,
2013-01-31 03:57:00,37.0,20.1,30.12,SW,227,0.0,5.8,50,0.00,,---,0.00,VWS V14.01,2013-01-31 10:57:00,
2013-01-31 04:02:00,37.0,20.1,30.12,South,169,3.1,3.6,50,0.00,,---,0.00,VWS V14.01,2013-01-31 11:02:00,
2013-01-31 04:07:00,36.9,20.0,30.12,SSE,167,0.0,3.6,50,0.00,,---,0.00,VWS V14.01,2013-01-31 11:07:00,
2013-01-31 04:12:00,36.7,19.8,30.15,SW,235,0.0,3.6,50,0.00,,---,0.00,VWS V14.01,2013-01-31 11:12:00,
2013-01-31 04:17:00,36.7,19.8,30.15,WSW,254,0.0,0.0,50,0.00,,---,0.00,VWS V14.01,2013-01-31 11:17:00,
2013-01-31 04:22:00,36.7,19.8,30.15,SE,144,3.6,4.0,50,0.00,,---,0.00,VWS V14.01,2013-01-31 11:22:00,
2013-01-31 04:28:00,36.9,20.0,30.15,ESE,123,0.0,4.0,50,0.00,,---,0.00,VWS V14.01,2013-01-31 11:28:00,
2013-01-31 04:33:00,36.7,19.8,30.15,SSE,157,3.6,3.6,50,0.00,,---,0.00,VWS V14.01,2013-01-31 11:33:00,
2013-01-31 04:38:00,36.9,20.0,30.15,SSE,161,4.0,6.7,50,0.00,,---,0.00,VWS V14.01,2013-01-31 11:38:00,
2013-01-31 04:43:00,37.6,20.6,30.15,SSW,199,3.6,6.7,50,0.00,,---,0.00,VWS V14.01,2013-01-31 11:43:00,
2013-01-31 04:48:00,37.9,20.5,30.15,WSW,249,2.2,3.6,49,0.00,,---,0.00,VWS V14.01,2013-01-31 11:48:00,
2013-01-31 04:53:00,37.9,20.5,30.15,SSW,198,0.0,3.6,49,0.00,,---,0.00,VWS V14.01,2013-01-31 11:53:00,
2013-01-31 04:58:00,37.6,19.7,30.15,SSW,198,0.0,3.6,48,0.00,,---,0.00,VWS V14.01,2013-01-31 11:58:00,
2013-01-31 05:03:00,37.0,19.7,30.15,SSW,198,0.0,0.0,49,0.00,,---,0.00,VWS V14.01,2013-01-31 12:03:00,
2013-01-31 05:08:00,37.0,19.7,30.15,SSW,198,0.0,0.0,49,0.00,,---,0.00,VWS V14.01,2013-01-31 12:08:00,
2013-01-31 05:13:00,37.4,20.0,30.15,East,95,3.6,3.6,49,0.00,,---,0.00,VWS V14.01,2013-01-31 12:13:00,
2013-01-31 05:18:00,37.6,20.2,30.15,ESE,111,0.0,4.0,49,0.00,,---,0.00,VWS V14.01,2013-01-31 12:18:00,
2013-01-31 05:23:00,37.6,19.7,30.15,ESE,111,0.0,4.0,48,0.00,,---,0.00,VWS V14.01,2013-01-31 12:23:00,
2013-01-31 05:28:00,37.6,19.7,30.15,SE,130,2.2,4.9,48,0.00,,---,0.00,VWS V14.01,2013-01-31 12:28:00,
2013-01-31 05:33:00,38.1,20.2,30.15,South,182,3.1,3.1,48,0.00,,---,0.00,VWS V14.01,2013-01-31 12:33:00,
2013-01-31 05:38:00,37.9,19.5,30.15,South,182,0.0,4.0,47,0.00,,---,0.00,VWS V14.01,2013-01-31 12:38:00,
2013-01-31 05:43:00,37.6,19.2,30.15,South,182,0.0,4.0,47,0.00,,---,0.00,VWS V14.01,2013-01-31 12:43:00,
2013-01-31 05:48:00,37.4,19.0,30.15,South,182,0.0,0.0,47,0.00,,---,0.00,VWS V14.01,2013-01-31 12:48:00,
2013-01-31 05:53:00,37.4,19.0,30.15,South,179,0.0,4.0,47,0.00,,---,0.00,VWS V14.01,2013-01-31 12:53:00,
2013-01-31 05:58:00,37.2,19.4,30.15,SSW,201,0.0,4.0,48,0.00,,---,0.00,VWS V14.01,2013-01-31 12:58:00,
2013-01-31 06:03:00,37.4,19.5,30.15,ESE,117,0.0,3.6,48,0.00,,---,0.00,VWS V14.01,2013-01-31 13:03:00,
2013-01-31 06:08:00,37.4,19.5,30.15,ESE,118,0.0,3.6,48,0.00,,---,0.00,VWS V14.01,2013-01-31 13:08:00,
2013-01-31 06:13:00,37.4,19.5,30.15,East,91,0.0,3.6,48,0.00,,---,0.00,VWS V14.01,2013-01-31 13:13:00,
2013-01-31 06:18:00,37.4,19.5,30.15,NW,310,0.0,0.0,48,0.00,,---,0.00,VWS V14.01,2013-01-31 13:18:00,
2013-01-31 06:23:00,37.8,19.9,30.15,WNW,295,2.7,5.8,48,0.00,,---,0.00,VWS V14.01,2013-01-31 13:23:00,
2013-01-31 06:28:00,37.8,19.4,30.15,North,357,0.0,5.8,47,0.00,,---,0.00,VWS V14.01,2013-01-31 13:28:00,
2013-01-31 06:33:00,37.6,19.2,30.15,North,357,0.0,0.0,47,0.00,,---,0.00,VWS V14.01,2013-01-31 13:33:00,
2013-01-31 06:38:00,37.4,19.0,30.15,ENE,66,0.0,0.0,47,0.00,,---,0.00,VWS V14.01,2013-01-31 13:38:00,
2013-01-31 06:43:00,37.2,18.9,30.15,SW,233,0.0,0.0,47,0.00,,---,0.00,VWS V14.01,2013-01-31 13:43:00,
2013-01-31 06:48:00,37.0,18.7,30.15,SW,233,0.0,0.0,47,0.00,,---,0.00,VWS V14.01,2013-01-31 13:48:00,
2013-01-31 06:53:00,36.7,18.9,30.15,SW,233,0.0,0.0,48,0.00,,---,0.00,VWS V14.01,2013-01-31 13:53:00,
2013-01-31 06:58:00,36.5,18.7,30.15,SW,233,0.0,0.0,48,0.00,,---,0.00,VWS V14.01,2013-01-31 13:58:00,
2013-01-31 07:03:00,36.1,18.4,30.15,SW,233,0.0,0.0,48,0.00,,---,0.00,VWS V14.01,2013-01-31 14:03:00,
2013-01-31 07:08:00,35.8,18.5,30.15,SW,233,0.0,0.0,49,0.00,,---,0.00,VWS V14.01,2013-01-31 14:08:00,
2013-01-31 07:13:00,35.6,18.8,30.15,WSW,248,0.0,0.0,50,0.00,,---,0.00,VWS V14.01,2013-01-31 14:13:00,
2013-01-31 07:18:00,35.6,18.8,30.15,SW,236,0.0,3.6,50,0.00,,---,0.00,VWS V14.01,2013-01-31 14:18:00,
2013-01-31 07:23:00,35.2,18.5,30.15,SW,236,0.0,3.6,50,0.00,,---,0.00,VWS V14.01,2013-01-31 14:23:00,
2013-01-31 07:28:00,35.1,18.8,30.15,SW,236,0.0,3.6,51,0.00,,---,0.00,VWS V14.01,2013-01-31 14:28:00,
2013-01-31 07:33:00,35.1,19.2,30.15,SW,236,0.0,0.0,52,0.00,,---,0.00,VWS V14.01,2013-01-31 14:33:00,
2013-01-31 07:38:00,35.1,19.7,30.15,West,264,0.0,0.0,53,0.00,,---,0.00,VWS V14.01,2013-01-31 14:38:00,
2013-01-31 07:43:00,34.9,19.5,30.15,West,264,0.0,0.0,53,0.00,,---,0.00,VWS V14.01,2013-01-31 14:43:00,
2013-01-31 07:48:00,35.1,19.7,30.15,West,264,0.0,0.0,53,0.00,,---,0.00,VWS V14.01,2013-01-31 14:48:00,
2013-01-31 07:53:00,35.1,20.1,30.15,West,264,0.0,0.0,54,0.00,,---,0.00,VWS V14.01,2013-01-31 14:53:00,
2013-01-31 07:58:00,35.1,19.7,30.15,West,264,0.0,0.0,53,0.00,,---,0.00,VWS V14.01,2013-01-31 14:58:00,
2013-01-31 08:03:00,35.1,19.7,30.15,West,264,0.0,0.0,53,0.00,,---,0.00,VWS V14.01,2013-01-31 15:03:00,
2013-01-31 08:08:00,35.1,19.7,30.15,WSW,245,0.0,0.0,53,0.00,,---,0.00,VWS V14.01,2013-01-31 15:08:00,
2013-01-31 08:13:00,35.1,20.5,30.15,WNW,283,0.0,4.0,55,0.00,,---,0.00,VWS V14.01,2013-01-31 15:13:00,
2013-01-31 08:18:00,35.2,20.7,30.15,WNW,283,0.0,0.0,55,0.00,,---,0.00,VWS V14.01,2013-01-31 15:18:00,
2013-01-31 08:23:00,35.1,20.1,30.15,WNW,297,0.0,2.2,54,0.00,,---,0.00,VWS V14.01,2013-01-31 15:23:00,
2013-01-31 08:28:00,35.4,21.3,30.15,NW,313,0.0,2.7,56,0.00,,---,0.00,VWS V14.01,2013-01-31 15:28:00,
2013-01-31 08:33:00,35.8,21.2,30.15,WNW,302,0.0,0.0,55,0.00,,---,0.00,VWS V14.01,2013-01-31 15:33:00,
2013-01-31 08:38:00,36.0,21.4,30.15,WNW,302,0.0,0.0,55,0.00,,---,0.00,VWS V14.01,2013-01-31 15:38:00,
2013-01-31 08:43:00,36.1,21.1,30.15,WNW,302,0.0,0.0,54,0.00,,---,0.00,VWS V14.01,2013-01-31 15:43:00,
2013-01-31 08:48:00,36.1,21.1,30.15,West,266,0.0,0.0,54,0.00,,---,0.00,VWS V14.01,2013-01-31 15:48:00,
2013-01-31 08:53:00,36.1,21.1,30.15,SE,140,5.4,5.4,54,0.00,,---,0.00,VWS V14.01,2013-01-31 15:53:00,
2013-01-31 08:58:00,36.1,21.1,30.15,SSE,160,0.0,5.4,54,0.00,,---,0.00,VWS V14.01,2013-01-31 15:58:00,
2013-01-31 09:03:00,36.7,22.0,30.15,SSE,160,0.0,0.0,55,0.00,,---,0.00,VWS V14.01,2013-01-31 16:03:00,
2013-01-31 09:08:00,37.2,21.7,30.15,East,86,0.0,0.0,53,0.00,,---,0.00,VWS V14.01,2013-01-31 16:08:00,
2013-01-31 09:13:00,37.9,21.9,30.15,ENE,76,0.0,0.0,52,0.00,,---,0.00,VWS V14.01,2013-01-31 16:13:00,
2013-01-31 09:18:00,38.8,22.7,30.15,SSW,211,0.0,0.0,52,0.00,,---,0.00,VWS V14.01,2013-01-31 16:18:00,
2013-01-31 09:23:00,39.6,23.4,30.15,ENE,75,0.0,0.0,52,0.00,,---,0.00,VWS V14.01,2013-01-31 16:23:00,
2013-01-31 09:28:00,39.9,22.3,30.15,East,89,0.0,3.6,49,0.00,,---,0.00,VWS V14.01,2013-01-31 16:28:00,
2013-01-31 09:33:00,39.9,22.3,30.15,East,89,0.0,0.0,49,0.00,,---,0.00,VWS V14.01,2013-01-31 16:33:00,
2013-01-31 09:38:00,39.7,20.7,30.15,North,357,0.0,0.0,46,0.00,,---,0.00,VWS V14.01,2013-01-31 16:38:00,
2013-01-31 09:43:00,39.9,19.8,30.15,North,6,0.0,0.0,44,0.00,,---,0.00,VWS V14.01,2013-01-31 16:43:00,
2013-01-31 09:48:00,40.3,19.6,30.15,North,4,3.1,4.0,43,0.00,,---,0.00,VWS V14.01,2013-01-31 16:48:00,
2013-01-31 09:53:00,40.5,19.7,30.15,North,7,0.0,4.0,43,0.00,,---,0.00,VWS V14.01,2013-01-31 16:53:00,
2013-01-31 09:58:00,40.6,19.4,30.15,North,3,0.0,4.0,42,0.00,,---,0.00,VWS V14.01,2013-01-31 16:58:00,
2013-01-31 10:03:00,40.6,19.9,30.15,NNE,24,0.0,0.0,43,0.00,,---,0.00,VWS V14.01,2013-01-31 17:03:00,
2013-01-31 10:08:00,41.0,19.1,30.15,NE,45,3.1,4.5,41,0.00,,---,0.00,VWS V14.01,2013-01-31 17:08:00,
2013-01-31 10:13:00,41.5,19.6,30.15,NE,37,0.0,4.5,41,0.00,,---,0.00,VWS V14.01,2013-01-31 17:13:00,
2013-01-31 10:18:00,41.7,19.2,30.15,NE,35,3.1,3.1,40,0.00,,---,0.00,VWS V14.01,2013-01-31 17:18:00,
2013-01-31 10:23:00,42.1,20.1,30.15,SE,128,2.7,3.6,41,0.00,,---,0.00,VWS V14.01,2013-01-31 17:23:00,
2013-01-31 10:28:00,42.1,20.1,30.15,SE,128,0.0,3.6,41,0.00,,---,0.00,VWS V14.01,2013-01-31 17:28:00,
2013-01-31 10:33:00,42.8,20.8,30.15,East,96,0.0,0.0,41,0.00,,---,0.00,VWS V14.01,2013-01-31 17:33:00,
2013-01-31 10:38:00,43.9,21.7,30.15,East,90,0.0,4.0,41,0.00,,---,0.00,VWS V14.01,2013-01-31 17:38:00,
2013-01-31 10:43:00,45.0,21.5,30.15,NNE,32,0.0,4.0,39,0.00,,---,0.00,VWS V14.01,2013-01-31 17:43:00,
2013-01-31 10:48:00,45.3,21.8,30.15,NE,34,0.0,0.0,39,0.00,,---,0.00,VWS V14.01,2013-01-31 17:48:00,
2013-01-31 10:53:00,45.0,20.9,30.15,NNW,328,0.0,0.0,38,0.00,,---,0.00,VWS V14.01,2013-01-31 17:53:00,
2013-01-31 10:58:00,44.6,20.6,30.18,NNE,15,4.0,4.9,38,0.00,,---,0.00,VWS V14.01,2013-01-31 17:58:00,
2013-01-31 11:03:00,43.5,19.6,30.18,NNE,22,0.0,4.0,38,0.00,,---,0.00,VWS V14.01,2013-01-31 18:03:00,
2013-01-31 11:08:00,42.8,19.6,30.18,NNW,334,3.1,5.4,39,0.00,,---,0.00,VWS V14.01,2013-01-31 18:08:00,
2013-01-31 11:13:00,42.8,19.6,30.18,North,10,0.0,5.4,39,0.00,,---,0.00,VWS V14.01,2013-01-31 18:13:00,
2013-01-31 11:18:00,42.8,19.6,30.18,North,353,0.0,2.7,39,0.00,,---,0.00,VWS V14.01,2013-01-31 18:18:00,
2013-01-31 11:23:00,42.4,19.2,30.18,North,357,2.7,4.0,39,0.00,,---,0.00,VWS V14.01,2013-01-31 18:23:00,
2013-01-31 11:28:00,42.8,19.6,30.15,NW,321,2.7,5.4,39,0.00,,---,0.00,VWS V14.01,2013-01-31 18:28:00,
2013-01-31 11:33:00,43.5,20.2,30.15,NW,321,0.0,0.0,39,0.00,,---,0.00,VWS V14.01,2013-01-31 18:33:00,
2013-01-31 11:38:00,46.6,23.0,30.15,SE,144,3.6,3.6,39,0.00,,---,0.00,VWS V14.01,2013-01-31 18:38:00,
2013-01-31 11:43:00,48.9,24.5,30.15,SSE,158,5.4,5.4,38,0.00,,---,0.00,VWS V14.01,2013-01-31 18:43:00,
2013-01-31 11:48:00,50.4,25.1,30.15,SSE,156,0.0,3.1,37,0.00,,---,0.00,VWS V14.01,2013-01-31 18:48:00,
2013-01-31 11:53:00,52.0,25.9,30.15,SSW,212,0.0,3.1,36,0.00,,---,0.00,VWS V14.01,2013-01-31 18:53:00,
2013-01-31 11:58:00,51.1,25.1,30.18,South,180,3.1,3.1,36,0.00,,---,0.00,VWS V14.01,2013-01-31 18:58:00,
2013-01-31 12:03:00,48.9,21.1,30.18,SSE,167,3.1,4.0,33,0.00,,---,0.00,VWS V14.01,2013-01-31 19:03:00,
2013-01-31 12:08:00,47.8,20.9,30.18,SSE,163,0.0,4.0,34,0.00,,---,0.00,VWS V14.01,2013-01-31 19:08:00,
2013-01-31 12:13:00,47.3,20.4,30.18,ENE,64,0.0,4.0,34,0.00,,---,0.00,VWS V14.01,2013-01-31 19:13:00,
2013-01-31 12:18:00,47.1,20.2,30.18,East,86,3.1,4.9,34,0.00,,---,0.00,VWS V14.01,2013-01-31 19:18:00,
2013-01-31 12:23:00,46.6,19.7,30.18,East,94,2.7,4.9,34,0.00,,---,0.00,VWS V14.01,2013-01-31 19:23:00,
2013-01-31 12:28:00,46.4,19.6,30.15,East,81,0.0,4.9,34,0.00,,---,0.00,VWS V14.01,2013-01-31 19:28:00,
2013-01-31 12:33:00,46.2,20.1,30.15,North,5,3.6,3.6,35,0.00,,---,0.00,VWS V14.01,2013-01-31 19:33:00,
2013-01-31 12:38:00,45.7,19.6,30.15,North,6,2.2,4.0,35,0.00,,---,0.00,VWS V14.01,2013-01-31 19:38:00,
2013-01-31 12:43:00,46.4,20.9,30.15,NNE,16,0.0,4.0,36,0.00,,---,0.00,VWS V14.01,2013-01-31 19:43:00,
2013-01-31 12:48:00,47.7,21.4,30.15,North,11,0.0,0.0,35,0.00,,---,0.00,VWS V14.01,2013-01-31 19:48:00,
2013-01-31 12:53:00,48.6,20.8,30.15,North,0,2.2,5.4,33,0.00,,---,0.00,VWS V14.01,2013-01-31 19:53:00,
2013-01-31 12:58:00,48.7,20.9,30.15,NE,49,0.0,5.4,33,0.00,,---,0.00,VWS V14.01,2013-01-31 19:58:00,
2013-01-31 13:03:00,48.2,19.7,30.15,North,9,2.7,3.1,32,0.00,,---,0.00,VWS V14.01,2013-01-31 20:03:00,
2013-01-31 13:08:00,47.8,20.1,30.15,North,2,0.0,3.1,33,0.00,,---,0.00,VWS V14.01,2013-01-31 20:08:00,
2013-01-31 13:13:00,47.8,20.1,30.15,North,2,0.0,3.1,33,0.00,,---,0.00,VWS V14.01,2013-01-31 20:13:00,
2013-01-31 13:18:00,48.0,20.3,30.15,North,2,0.0,0.0,33,0.00,,---,0.00,VWS V14.01,2013-01-31 20:18:00,
2013-01-31 13:23:00,48.0,20.3,30.15,North,2,0.0,0.0,33,0.00,,---,0.00,VWS V14.01,2013-01-31 20:23:00,
2013-01-31 13:28:00,47.8,20.1,30.15,ENE,77,3.6,4.0,33,0.00,,---,0.00,VWS V14.01,2013-01-31 20:28:00,
2013-01-31 13:33:00,47.8,20.1,30.15,SE,139,0.0,3.1,33,0.00,,---,0.00,VWS V14.01,2013-01-31 20:33:00,
2013-01-31 13:38:00,47.7,19.3,30.15,East,82,2.7,4.0,32,0.00,,---,0.00,VWS V14.01,2013-01-31 20:38:00,
2013-01-31 13:43:00,47.7,20.0,30.15,East,94,0.0,4.0,33,0.00,,---,0.00,VWS V14.01,2013-01-31 20:43:00,
2013-01-31 13:48:00,47.7,20.0,30.15,East,89,0.0,0.0,33,0.00,,---,0.00,VWS V14.01,2013-01-31 20:48:00,
2013-01-31 13:53:00,47.5,19.1,30.15,East,80,0.0,0.0,32,0.00,,---,0.00,VWS V14.01,2013-01-31 20:53:00,
2013-01-31 13:58:00,47.1,19.5,30.15,North,1,3.1,3.6,33,0.00,,---,0.00,VWS V14.01,2013-01-31 20:58:00,
2013-01-31 14:03:00,46.4,18.9,30.15,NNE,12,2.2,4.0,33,0.00,,---,0.00,VWS V14.01,2013-01-31 21:03:00,
2013-01-31 14:08:00,46.0,18.6,30.15,North,1,2.7,5.4,33,0.00,,---,0.00,VWS V14.01,2013-01-31 21:08:00,
2013-01-31 14:13:00,46.0,19.3,30.15,North,6,0.0,5.4,34,0.00,,---,0.00,VWS V14.01,2013-01-31 21:13:00,
2013-01-31 14:18:00,46.0,19.3,30.15,North,0,0.0,0.0,34,0.00,,---,0.00,VWS V14.01,2013-01-31 21:18:00,
2013-01-31 14:23:00,45.9,19.1,30.15,NNE,14,2.7,2.7,34,0.00,,---,0.00,VWS V14.01,2013-01-31 21:23:00,
2013-01-31 14:28:00,45.7,19.6,30.15,NNE,24,0.0,4.0,35,0.00,,---,0.00,VWS V14.01,2013-01-31 21:28:00,
2013-01-31 14:33:00,45.7,18.9,30.15,NNE,12,2.7,4.0,34,0.00,,---,0.00,VWS V14.01,2013-01-31 21:33:00,
2013-01-31 14:38:00,45.9,19.8,30.15,North,8,0.0,4.0,35,0.00,,---,0.00,VWS V14.01,2013-01-31 21:38:00,
2013-01-31 14:43:00,45.9,19.8,30.15,North,353,0.0,4.0,35,0.00,,---,0.00,VWS V14.01,2013-01-31 21:43:00,
2013-01-31 14:48:00,45.9,19.8,30.15,NNE,32,0.0,0.0,35,0.00,,---,0.00,VWS V14.01,2013-01-31 21:48:00,
2013-01-31 14:53:00,46.0,19.9,30.15,ENE,64,0.0,0.0,35,0.00,,---,0.00,VWS V14.01,2013-01-31 21:53:00,
2013-01-31 14:58:00,46.0,19.9,30.15,ENE,62,0.0,0.0,35,0.00,,---,0.00,VWS V14.01,2013-01-31 21:58:00,
2013-01-31 15:03:00,46.2,20.1,30.15,NNE,15,0.0,0.0,35,0.00,,---,0.00,VWS V14.01,2013-01-31 22:03:00,
2013-01-31 15:08:00,46.6,20.4,30.15,East,98,0.0,0.0,35,0.00,,---,0.00,VWS V14.01,2013-01-31 22:08:00,
2013-01-31 15:13:00,46.6,20.4,30.15,ESE,118,0.0,0.0,35,0.00,,---,0.00,VWS V14.01,2013-01-31 22:13:00,
2013-01-31 15:18:00,46.4,19.6,30.15,ESE,111,2.2,3.6,34,0.00,,---,0.00,VWS V14.01,2013-01-31 22:18:00,
2013-01-31 15:23:00,46.2,20.1,30.15,East,89,3.1,3.6,35,0.00,,---,0.00,VWS V14.01,2013-01-31 22:23:00,
2013-01-31 15:28:00,46.0,19.9,30.15,East,80,0.0,3.6,35,0.00,,---,0.00,VWS V14.01,2013-01-31 22:28:00,
2013-01-31 15:33:00,45.9,19.8,30.15,ENE,67,0.0,0.0,35,0.00,,---,0.00,VWS V14.01,2013-01-31 22:33:00,
2013-01-31 15:38:00,45.5,19.5,30.15,ENE,65,2.2,2.7,35,0.00,,---,0.00,VWS V14.01,2013-01-31 22:38:00,
2013-01-31 15:43:00,45.3,19.3,30.15,ENE,68,3.1,4.0,35,0.00,,---,0.00,VWS V14.01,2013-01-31 22:43:00,
2013-01-31 15:48:00,45.0,20.3,30.15,NE,52,0.0,2.7,37,0.00,,---,0.00,VWS V14.01,2013-01-31 22:48:00,
2013-01-31 15:53:00,44.6,20.0,30.15,NNE,14,0.0,2.7,37,0.00,,---,0.00,VWS V14.01,2013-01-31 22:53:00,
2013-01-31 15:58:00,44.1,20.1,30.15,North,10,0.0,2.7,38,0.00,,---,0.00,VWS V14.01,2013-01-31 22:58:00,
2013-01-31 16:03:00,43.7,19.8,30.15,NNE,15,3.1,3.6,38,0.00,,---,0.00,VWS V14.01,2013-01-31 23:03:00,
2013-01-31 16:08:00,43.7,19.8,30.15,North,5,3.1,4.0,38,0.00,,---,0.00,VWS V14.01,2013-01-31 23:08:00,
2013-01-31 16:13:00,43.5,19.6,30.15,North,3,2.2,4.9,38,0.00,,---,0.00,VWS V14.01,2013-01-31 23:13:00,
2013-01-31 16:18:00,43.5,19.6,30.15,North,357,0.0,3.1,38,0.00,,---,0.00,VWS V14.01,2013-01-31 23:18:00,
2013-01-31 16:23:00,43.5,19.6,30.15,North,357,0.0,3.1,38,0.00,,---,0.00,VWS V14.01,2013-01-31 23:23:00,
2013-01-31 16:28:00,43.5,19.6,30.15,North,357,0.0,3.1,38,0.00,,---,0.00,VWS V14.01,2013-01-31 23:28:00,
2013-01-31 16:33:00,43.7,19.8,30.15,North,357,0.0,0.0,38,0.00,,---,0.00,VWS V14.01,2013-01-31 23:33:00,
2013-01-31 16:39:00,43.9,19.9,30.15,North,357,0.0,0.0,38,0.00,,---,0.00,VWS V14.01,2013-01-31 23:39:00,
2013-01-31 16:44:00,43.9,19.9,30.15,North,357,0.0,0.0,38,0.00,,---,0.00,VWS V14.01,2013-01-31 23:44:00,
2013-01-31 16:49:00,44.2,20.3,30.15,North,357,0.0,0.0,38,0.00,,---,0.00,VWS V14.01,2013-01-31 23:49:00,
2013-01-31 16:54:00,44.1,20.1,30.15,East,101,0.0,3.1,38,0.00,,---,0.00,VWS V14.01,2013-01-31 23:54:00,
2013-01-31 16:59:00,44.1,20.1,30.15,ENE,67,3.1,4.0,38,0.00,,---,0.00,VWS V14.01,2013-01-31 23:59:00,
2013-01-31 17:04:00,43.3,20.1,30.15,ENE,60,2.2,2.7,39,0.00,,---,0.00,VWS V14.01,2013-02-01 00:04:00,
2013-01-31 17:09:00,42.8,19.6,30.15,North,1,3.6,4.0,39,0.00,,---,0.00,VWS V14.01,2013-02-01 00:09:00,
2013-01-31 17:14:00,42.4,19.2,30.15,North,5,3.1,4.0,39,0.00,,---,0.00,VWS V14.01,2013-02-01 00:14:00,
2013-01-31 17:19:00,42.1,18.9,30.15,North,0,0.0,4.5,39,0.00,,---,0.00,VWS V14.01,2013-02-01 00:19:00,
2013-01-31 17:24:00,41.7,18.6,30.15,SE,124,0.0,4.5,39,0.00,,---,0.00,VWS V14.01,2013-02-01 00:24:00,
2013-01-31 17:29:00,41.4,18.9,30.15,SE,124,0.0,4.5,40,0.00,,---,0.00,VWS V14.01,2013-02-01 00:29:00,
2013-01-31 17:34:00,40.8,18.4,30.15,SE,124,0.0,0.0,40,0.00,,---,0.00,VWS V14.01,2013-02-01 00:34:00,
2013-01-31 17:39:00,40.3,18.5,30.15,SE,124,0.0,0.0,41,0.00,,---,0.00,VWS V14.01,2013-02-01 00:39:00,
2013-01-31 17:44:00,39.7,17.4,30.15,WSW,245,0.0,3.1,40,0.00,,---,0.00,VWS V14.01,2013-02-01 00:44:00,
2013-01-31 17:49:00,39.0,17.3,30.15,WSW,245,0.0,0.0,41,0.00,,---,0.00,VWS V14.01,2013-02-01 00:49:00,
2013-01-31 17:54:00,38.5,16.8,30.15,WSW,245,0.0,0.0,41,0.00,,---,0.00,VWS V14.01,2013-02-01 00:54:00,
2013-01-31 17:59:00,37.9,16.9,30.15,WSW,245,0.0,0.0,42,0.00,,---,0.00,VWS V14.01,2013-02-01 00:59:00,
2013-01-31 18:04:00,37.6,17.7,30.15,WSW,245,0.0,0.0,44,0.00,,---,0.00,VWS V14.01,2013-02-01 01:04:00,
2013-01-31 18:09:00,37.4,18.0,30.15,WSW,245,0.0,0.0,45,0.00,,---,0.00,VWS V14.01,2013-02-01 01:09:00,
2013-01-31 18:14:00,37.2,19.4,30.15,WSW,256,0.0,0.0,48,0.00,,---,0.00,VWS V14.01,2013-02-01 01:14:00,
2013-01-31 18:19:00,37.0,19.2,30.15,WNW,286,0.0,2.7,48,0.00,,---,0.00,VWS V14.01,2013-02-01 01:19:00,
2013-01-31 18:24:00,36.9,19.5,30.15,West,276,0.0,2.7,49,0.00,,---,0.00,VWS V14.01,2013-02-01 01:24:00,
2013-01-31 18:29:00,36.9,20.0,30.15,WNW,292,2.2,4.9,50,0.00,,---,0.00,VWS V14.01,2013-02-01 01:29:00,
2013-01-31 18:34:00,36.9,20.0,30.15,WNW,292,0.0,0.0,50,0.00,,---,0.00,VWS V14.01,2013-02-01 01:34:00,
2013-01-31 18:39:00,37.0,19.7,30.15,WSW,240,3.1,4.0,49,0.00,,---,0.00,VWS V14.01,2013-02-01 01:39:00,
2013-01-31 18:44:00,36.7,19.3,30.15,WSW,243,2.2,4.0,49,0.00,,---,0.00,VWS V14.01,2013-02-01 01:44:00,
2013-01-31 18:49:00,36.3,19.0,30.15,WSW,243,0.0,0.0,49,0.00,,---,0.00,VWS V14.01,2013-02-01 01:49:00,
2013-01-31 18:54:00,35.8,18.5,30.15,SSE,160,0.0,0.0,49,0.00,,---,0.00,VWS V14.01,2013-02-01 01:54:00,
2013-01-31 18:59:00,35.6,18.3,30.15,SSW,200,0.0,0.0,49,0.00,,---,0.00,VWS V14.01,2013-02-01 01:59:00,
2013-01-31 19:04:00,35.4,19.1,30.15,West,279,0.0,0.0,51,0.00,,---,0.00,VWS V14.01,2013-02-01 02:04:00,
2013-01-31 19:09:00,35.4,19.6,30.12,West,276,0.0,3.6,52,0.00,,---,0.00,VWS V14.01,2013-02-01 02:09:00,
2013-01-31 19:14:00,35.2,19.4,30.12,WNW,295,0.0,3.6,52,0.00,,---,0.00,VWS V14.01,2013-02-01 02:14:00,
2013-01-31 19:19:00,35.1,19.2,30.12,WNW,295,0.0,0.0,52,0.00,,---,0.00,VWS V14.01,2013-02-01 02:19:00,
2013-01-31 19:24:00,35.1,19.2,30.12,WNW,290,0.0,0.0,52,0.00,,---,0.00,VWS V14.01,2013-02-01 02:24:00,
2013-01-31 19:29:00,35.1,19.2,30.12,WNW,290,0.0,0.0,52,0.00,,---,0.00,VWS V14.01,2013-02-01 02:29:00,
2013-01-31 19:34:00,35.1,19.2,30.12,WNW,290,0.0,0.0,52,0.00,,---,0.00,VWS V14.01,2013-02-01 02:34:00,
2013-01-31 19:39:00,35.2,19.4,30.15,WNW,290,0.0,0.0,52,0.00,,---,0.00,VWS V14.01,2013-02-01 02:39:00,
2013-01-31 19:44:00,35.4,19.6,30.15,WNW,290,0.0,0.0,52,0.00,,---,0.00,VWS V14.01,2013-02-01 02:44:00,
2013-01-31 19:49:00,35.4,19.6,30.15,WNW,290,0.0,0.0,52,0.00,,---,0.00,VWS V14.01,2013-02-01 02:49:00,
2013-01-31 19:54:00,35.1,19.2,30.12,South,191,3.1,4.0,52,0.00,,---,0.00,VWS V14.01,2013-02-01 02:54:00,
2013-01-31 19:59:00,34.7,18.9,30.12,SW,230,3.1,4.0,52,0.00,,---,0.00,VWS V14.01,2013-02-01 02:59:00,
2013-01-31 20:04:00,34.5,18.7,30.12,SW,226,0.0,3.1,52,0.00,,---,0.00,VWS V14.01,2013-02-01 03:04:00,
2013-01-31 20:09:00,34.5,19.6,30.12,WSW,245,0.0,3.1,54,0.00,,---,0.00,VWS V14.01,2013-02-01 03:09:00,
2013-01-31 20:14:00,34.7,19.8,30.12,West,273,0.0,3.1,54,0.00,,---,0.00,VWS V14.01,2013-02-01 03:14:00,
2013-01-31 20:19:00,34.5,19.6,30.12,SSE,165,0.0,0.0,54,0.00,,---,0.00,VWS V14.01,2013-02-01 03:19:00,
2013-01-31 20:24:00,34.5,19.6,30.15,SW,233,0.0,0.0,54,0.00,,---,0.00,VWS V14.01,2013-02-01 03:24:00,
2013-01-31 20:29:00,34.5,20.0,30.15,South,184,0.0,0.0,55,0.00,,---,0.00,VWS V14.01,2013-02-01 03:29:00,
2013-01-31 20:34:00,34.5,20.0,30.15,SSE,158,4.0,4.0,55,0.00,,---,0.00,VWS V14.01,2013-02-01 03:34:00,
2013-01-31 20:39:00,35.6,21.0,30.12,SSE,147,5.4,5.8,55,0.00,,---,0.00,VWS V14.01,2013-02-01 03:39:00,
2013-01-31 20:44:00,36.9,22.2,30.12,South,176,4.0,5.8,55,0.00,,---,0.00,VWS V14.01,2013-02-01 03:44:00,
2013-01-31 20:49:00,37.8,22.2,30.12,SW,229,5.4,6.3,53,0.00,,---,0.00,VWS V14.01,2013-02-01 03:49:00,
2013-01-31 20:54:00,37.8,21.7,30.12,SSW,198,3.1,6.3,52,0.00,,---,0.00,VWS V14.01,2013-02-01 03:54:00,
2013-01-31 20:59:00,37.4,20.9,30.12,SW,220,0.0,6.3,51,0.00,,---,0.00,VWS V14.01,2013-02-01 03:59:00,
2013-01-31 21:04:00,37.0,20.6,30.12,WNW,286,0.0,0.0,51,0.00,,---,0.00,VWS V14.01,2013-02-01 04:04:00,
2013-01-31 21:09:00,36.7,20.3,30.12,West,277,0.0,0.0,51,0.00,,---,0.00,VWS V14.01,2013-02-01 04:09:00,
2013-01-31 21:14:00,36.5,20.1,30.12,West,277,0.0,0.0,51,0.00,,---,0.00,VWS V14.01,2013-02-01 04:14:00,
2013-01-31 21:19:00,36.1,19.8,30.12,West,277,0.0,0.0,51,0.00,,---,0.00,VWS V14.01,2013-02-01 04:19:00,
2013-01-31 21:24:00,36.3,20.4,30.12,ENE,71,3.1,3.1,52,0.00,,---,0.00,VWS V14.01,2013-02-01 04:24:00,
2013-01-31 21:29:00,37.0,20.6,30.12,ENE,66,0.0,3.1,51,0.00,,---,0.00,VWS V14.01,2013-02-01 04:29:00,
2013-01-31 21:34:00,36.7,20.3,30.12,ENE,66,0.0,0.0,51,0.00,,---,0.00,VWS V14.01,2013-02-01 04:34:00,
2013-01-31 21:39:00,36.9,20.4,30.12,North,6,0.0,0.0,51,0.00,,---,0.00,VWS V14.01,2013-02-01 04:39:00,
2013-01-31 21:44:00,36.5,19.6,30.12,North,357,0.0,0.0,50,0.00,,---,0.00,VWS V14.01,2013-02-01 04:44:00,
2013-01-31 21:49:00,35.6,18.8,30.12,North,357,0.0,0.0,50,0.00,,---,0.00,VWS V14.01,2013-02-01 04:49:00,
2013-01-31 21:54:00,35.1,18.8,30.12,NNE,13,0.0,0.0,51,0.00,,---,0.00,VWS V14.01,2013-02-01 04:54:00,
2013-01-31 21:59:00,35.4,19.6,30.12,ESE,115,3.6,4.0,52,0.00,,---,0.00,VWS V14.01,2013-02-01 04:59:00,
2013-01-31 22:00:00,35.4,20.0,30.12,SE,139,3.1,4.0,53,0.00,,---,0.00,VWS V14.01,2013-02-01 05:00:00,
2013-01-31 22:02:00,35.8,19.9,30.12,SE,137,3.6,3.6,52,0.00,,---,0.00,VWS V14.01,2013-02-01 05:02:00,
2013-01-31 22:03:00,35.8,19.9,30.12,ESE,123,3.1,3.6,52,0.00,,---,0.00,VWS V14.01,2013-02-01 05:03:00,
2013-01-31 22:08:00,36.1,20.2,30.12,East,81,3.1,4.9,52,0.00,,---,0.00,VWS V14.01,2013-02-01 05:08:00,
2013-01-31 22:13:00,37.0,21.1,30.12,East,100,3.6,5.4,52,0.00,,---,0.00,VWS V14.01,2013-02-01 05:13:00,
2013-01-31 22:18:00,37.4,20.9,30.12,SSE,164,4.0,4.0,51,0.00,,---,0.00,VWS V14.01,2013-02-01 05:18:00,
2013-01-31 22:23:00,37.6,20.6,30.12,SSE,149,4.0,5.8,50,0.00,,---,0.00,VWS V14.01,2013-02-01 05:23:00,
2013-01-31 22:28:00,37.4,20.5,30.12,South,173,3.1,5.8,50,0.00,,---,0.00,VWS V14.01,2013-02-01 05:28:00,
2013-01-31 22:33:00,37.4,20.5,30.12,South,172,3.6,5.8,50,0.00,,---,0.00,VWS V14.01,2013-02-01 05:33:00,
2013-01-31 22:38:00,37.6,20.6,30.12,South,181,0.0,5.8,50,0.00,,---,0.00,VWS V14.01,2013-02-01 05:38:00,
2013-01-31 22:43:00,37.8,20.8,30.12,West,271,4.0,5.8,50,0.00,,---,0.00,VWS V14.01,2013-02-01 05:43:00,
2013-01-31 22:48:00,37.6,20.6,30.12,SW,236,2.7,3.6,50,0.00,,---,0.00,VWS V14.01,2013-02-01 05:48:00,
2013-01-31 22:53:00,37.0,20.1,30.12,SW,236,0.0,3.6,50,0.00,,---,0.00,VWS V14.01,2013-02-01 05:53:00,
2013-01-31 22:58:00,36.3,19.5,30.12,WSW,245,0.0,3.6,50,0.00,,---,0.00,VWS V14.01,2013-02-01 05:58:00,
2013-01-31 23:03:00,36.0,19.6,30.12,WNW,297,0.0,3.1,51,0.00,,---,0.00,VWS V14.01,2013-02-01 06:03:00,
2013-01-31 23:08:00,35.8,19.4,30.12,SW,230,0.0,3.1,51,0.00,,---,0.00,VWS V14.01,2013-02-01 06:08:00,
2013-01-31 23:13:00,35.6,19.3,30.12,South,191,2.7,3.1,51,0.00,,---,0.00,VWS V14.01,2013-02-01 06:13:00,
2013-01-31 23:18:00,35.4,19.6,30.12,WSW,251,2.2,2.7,52,0.00,,---,0.00,VWS V14.01,2013-02-01 06:18:00,
2013-01-31 23:23:00,35.1,19.7,30.12,WNW,287,0.0,3.1,53,0.00,,---,0.00,VWS V14.01,2013-02-01 06:23:00,
2013-01-31 23:28:00,35.2,20.3,30.12,WNW,301,0.0,3.1,54,0.00,,---,0.00,VWS V14.01,2013-02-01 06:28:00,
2013-01-31 23:33:00,35.2,19.8,30.12,West,269,0.0,2.2,53,0.00,,---,0.00,VWS V14.01,2013-02-01 06:33:00,
2013-01-31 23:38:00,35.2,20.3,30.12,West,278,0.0,2.2,54,0.00,,---,0.00,VWS V14.01,2013-02-01 06:38:00,
2013-01-31 23:43:00,35.2,19.8,30.12,WSW,249,2.7,4.0,53,0.00,,---,0.00,VWS V14.01,2013-02-01 06:43:00,
2013-01-31 23:48:00,35.2,19.8,30.12,WSW,237,2.2,4.0,53,0.00,,---,0.00,VWS V14.01,2013-02-01 06:48:00,
2013-01-31 23:53:00,35.6,20.2,30.12,West,268,0.0,4.0,53,0.00,,---,0.00,VWS V14.01,2013-02-01 06:53:00,
2013-01-31 23:58:00,35.1,19.7,30.12,West,278,0.0,4.0,53,0.00,,---,0.00,VWS V14.01,2013-02-01 06:58:00,